Wetterdaten: Sonntag, 26.08.2012
Datum Zeit Temperatur Luftfeuchte Regen Wind Richtung Richtung Taupunkt Windchill Windben
26.08.2012 00:00 11,9 C 95 % 0,0 l/m 5,6 km/h (1 Bft) NO 45 11,1 C 11,5 C 11,9 km/h (2 Bft)
26.08.2012 00:05 11,9 C 95 % 0,7 l/m 5,1 km/h (1 Bft) N-NO 22 11,1 C 11,7 C 3,2 km/h (1 Bft)
26.08.2012 00:10 11,9 C 95 % 0,0 l/m 5,5 km/h (1 Bft) O 90 11,1 C 11,6 C 2,1 km/h (1 Bft)
26.08.2012 00:15 11,9 C 95 % 0,7 l/m 4,5 km/h (1 Bft) O-SO 112 11,1 C 11,7 C 2,3 km/h (1 Bft)
26.08.2012 00:20 11,9 C 95 % 0,0 l/m 3,9 km/h (1 Bft) N-NO 22 11,1 C 11,7 C 0,0 km/h (0 Bft)
26.08.2012 00:25 11,9 C 95 % 0,7 l/m 1,8 km/h (1 Bft) N-NO 22 11,1 C 11,7 C 1,8 km/h (1 Bft)
26.08.2012 00:30 11,9 C 95 % 0,7 l/m 1,6 km/h (1 Bft) O-SO 112 11,1 C 11,7 C 3,2 km/h (1 Bft)
26.08.2012 00:35 11,9 C 95 % 0,7 l/m 1,6 km/h (1 Bft) O-NO 67 11,1 C 11,7 C 0,0 km/h (0 Bft)
26.08.2012 00:40 11,8 C 95 % 0,0 l/m 1,6 km/h (1 Bft) SO 135 11,0 C 11,7 C 0,0 km/h (0 Bft)
26.08.2012 00:45 11,7 C 95 % 0,7 l/m 1,1 km/h (1 Bft) O-NO 67 10,9 C 11,7 C 2,9 km/h (1 Bft)
26.08.2012 00:50 11,6 C 95 % 0,0 l/m 1,0 km/h (0 Bft) N-NO 22 10,8 C 11,7 C 1,9 km/h (1 Bft)
26.08.2012 00:55 11,6 C 95 % 0,7 l/m 1,0 km/h (0 Bft) N 360 10,8 C 11,6 C 0,0 km/h (0 Bft)
26.08.2012 01:00 11,6 C 95 % 0,0 l/m 0,6 km/h (0 Bft) N-NO 22 10,8 C 11,5 C 0,0 km/h (0 Bft)
26.08.2012 01:05 11,6 C 95 % 0,7 l/m 0,5 km/h (0 Bft) N-NO 22 10,8 C 11,5 C 1,6 km/h (1 Bft)
26.08.2012 01:10 11,6 C 95 % 0,0 l/m 0,3 km/h (0 Bft) SO 135 10,8 C 11,5 C 0,0 km/h (0 Bft)
26.08.2012 01:15 11,6 C 95 % 0,7 l/m 0,5 km/h (0 Bft) N-NO 22 10,8 C 11,5 C 0,0 km/h (0 Bft)
26.08.2012 01:20 11,6 C 95 % 0,0 l/m 0,3 km/h (0 Bft) N-NW 337 10,8 C 11,6 C 0,0 km/h (0 Bft)
26.08.2012 01:25 11,7 C 95 % 0,7 l/m 0,8 km/h (0 Bft) N-NO 22 10,9 C 11,6 C 0,0 km/h (0 Bft)
26.08.2012 01:30 11,7 C 95 % 0,0 l/m 0,8 km/h (0 Bft) NO 45 10,9 C 11,6 C 0,0 km/h (0 Bft)
26.08.2012 01:35 11,8 C 95 % 0,7 l/m 0,3 km/h (0 Bft) W-SW 247 11,0 C 11,6 C 0,0 km/h (0 Bft)
26.08.2012 01:40 11,7 C 95 % 0,0 l/m 0,3 km/h (0 Bft) S 180 10,9 C 11,6 C 3,1 km/h (1 Bft)
26.08.2012 01:45 11,7 C 95 % 0,0 l/m 1,1 km/h (1 Bft) SO 135 10,9 C 11,6 C 8,5 km/h (2 Bft)
26.08.2012 01:50 11,6 C 95 % 0,7 l/m 2,3 km/h (1 Bft) S-SO 157 10,8 C 11,6 C 2,7 km/h (1 Bft)
26.08.2012 01:55 11,6 C 95 % 0,0 l/m 1,4 km/h (1 Bft) NO 45 10,8 C 11,5 C 0,0 km/h (0 Bft)
26.08.2012 02:00 11,6 C 95 % 0,0 l/m 0,6 km/h (0 Bft) O-SO 112 10,8 C 11,5 C 0,0 km/h (0 Bft)
26.08.2012 02:05 11,6 C 95 % 0,7 l/m 0,6 km/h (0 Bft) N 360 10,8 C 11,5 C 1,8 km/h (1 Bft)
26.08.2012 02:10 11,6 C 95 % 0,0 l/m 0,6 km/h (0 Bft) O-SO 112 10,8 C 11,5 C 1,6 km/h (1 Bft)
26.08.2012 02:15 11,5 C 96 % 0,0 l/m 0,5 km/h (0 Bft) NO 45 10,9 C 11,4 C 0,0 km/h (0 Bft)
26.08.2012 02:20 11,5 C 96 % 0,0 l/m 0,3 km/h (0 Bft) O-SO 112 10,9 C 11,4 C 0,0 km/h (0 Bft)
26.08.2012 02:25 11,4 C 96 % 0,0 l/m 0,0 km/h (0 Bft) N 360 10,8 C 11,3 C 0,0 km/h (0 Bft)
26.08.2012 02:30 11,3 C 96 % 0,0 l/m 0,0 km/h (0 Bft) N 360 10,7 C 11,2 C 2,4 km/h (1 Bft)
26.08.2012 02:35 11,3 C 96 % 0,0 l/m 0,2 km/h (0 Bft) N 360 10,7 C 11,1 C 1,8 km/h (1 Bft)
26.08.2012 02:40 11,2 C 96 % 0,0 l/m 0,3 km/h (0 Bft) NO 45 10,6 C 11,1 C 0,0 km/h (0 Bft)
26.08.2012 02:45 11,2 C 96 % 0,0 l/m 0,3 km/h (0 Bft) O 90 10,6 C 11,1 C 0,0 km/h (0 Bft)
26.08.2012 02:50 11,2 C 96 % 0,0 l/m 0,6 km/h (0 Bft) N-NO 22 10,6 C 11,1 C 0,0 km/h (0 Bft)
26.08.2012 02:55 11,2 C 96 % 0,0 l/m 0,6 km/h (0 Bft) NO 45 10,6 C 11,1 C 0,0 km/h (0 Bft)
26.08.2012 03:00 11,2 C 96 % 0,0 l/m 0,3 km/h (0 Bft) N-NO 22 10,6 C 11,1 C 0,0 km/h (0 Bft)
26.08.2012 03:05 11,0 C 95 % 0,0 l/m 0,2 km/h (0 Bft) N-NO 22 10,2 C 11,0 C 0,0 km/h (0 Bft)
26.08.2012 03:10 11,0 C 96 % 0,0 l/m 0,2 km/h (0 Bft) N-NO 22 10,4 C 10,9 C 0,0 km/h (0 Bft)
26.08.2012 03:15 10,9 C 96 % 0,0 l/m 0,2 km/h (0 Bft) N 360 10,3 C 10,9 C 0,0 km/h (0 Bft)
26.08.2012 03:20 11,0 C 96 % 0,0 l/m 0,2 km/h (0 Bft) N 360 10,4 C 10,8 C 0,0 km/h (0 Bft)
26.08.2012 03:25 11,0 C 96 % 0,0 l/m 0,3 km/h (0 Bft) N 360 10,4 C 10,9 C 0,0 km/h (0 Bft)
26.08.2012 03:30 11,0 C 95 % 0,0 l/m 0,2 km/h (0 Bft) NO 45 10,2 C 10,8 C 0,0 km/h (0 Bft)
26.08.2012 03:35 11,0 C 96 % 0,0 l/m 0,0 km/h (0 Bft) N-NW 337 10,4 C 10,7 C 0,0 km/h (0 Bft)
26.08.2012 03:40 10,9 C 96 % 0,0 l/m 0,0 km/h (0 Bft) N-NO 22 10,3 C 10,7 C 0,0 km/h (0 Bft)
26.08.2012 03:45 11,0 C 96 % 0,0 l/m 0,0 km/h (0 Bft) SO 135 10,4 C 10,7 C 1,8 km/h (1 Bft)
26.08.2012 03:50 11,0 C 96 % 0,0 l/m 0,0 km/h (0 Bft) O 90 10,4 C 10,7 C 0,0 km/h (0 Bft)
26.08.2012 03:55 10,9 C 96 % 0,0 l/m 0,0 km/h (0 Bft) N-NO 22 10,3 C 10,8 C 0,0 km/h (0 Bft)
26.08.2012 04:00 11,0 C 96 % 0,0 l/m 0,2 km/h (0 Bft) N-NO 22 10,4 C 10,8 C 1,6 km/h (1 Bft)
26.08.2012 04:05 11,0 C 96 % 0,0 l/m 0,2 km/h (0 Bft) N 360 10,4 C 10,8 C 0,0 km/h (0 Bft)
26.08.2012 04:10 11,0 C 96 % 0,0 l/m 0,2 km/h (0 Bft) NO 45 10,4 C 10,8 C 0,0 km/h (0 Bft)
26.08.2012 04:15 10,9 C 96 % 0,0 l/m 0,3 km/h (0 Bft) N 360 10,3 C 10,8 C 1,6 km/h (1 Bft)
26.08.2012 04:20 10,9 C 96 % 0,0 l/m 0,6 km/h (0 Bft) N-NO 22 10,3 C 10,8 C 2,3 km/h (1 Bft)
26.08.2012 04:25 10,9 C 96 % 0,0 l/m 0,5 km/h (0 Bft) W-NW 292 10,3 C 10,8 C 1,6 km/h (1 Bft)
26.08.2012 04:30 10,9 C 96 % 0,0 l/m 0,6 km/h (0 Bft) N 360 10,3 C 10,8 C 1,9 km/h (1 Bft)
26.08.2012 04:35 10,9 C 96 % 0,0 l/m 0,8 km/h (0 Bft) W-NW 292 10,3 C 10,8 C 0,0 km/h (0 Bft)
26.08.2012 04:40 10,9 C 96 % 0,0 l/m 1,3 km/h (1 Bft) N-NO 22 10,3 C 10,8 C 0,0 km/h (0 Bft)
26.08.2012 04:45 11,0 C 96 % 0,0 l/m 0,8 km/h (0 Bft) NO 45 10,4 C 10,9 C 0,0 km/h (0 Bft)
26.08.2012 04:50 11,0 C 96 % 0,0 l/m 0,0 km/h (0 Bft) NO 45 10,4 C 10,9 C 0,0 km/h (0 Bft)
26.08.2012 04:55 11,0 C 96 % 0,0 l/m 0,0 km/h (0 Bft) N-NO 22 10,4 C 10,9 C 0,0 km/h (0 Bft)
26.08.2012 05:00 11,0 C 96 % 0,0 l/m 0,3 km/h (0 Bft) N-NW 337 10,4 C 10,9 C 2,3 km/h (1 Bft)
26.08.2012 05:05 11,0 C 96 % 0,0 l/m 0,5 km/h (0 Bft) SO 135 10,4 C 10,9 C 0,0 km/h (0 Bft)
26.08.2012 05:10 11,0 C 96 % 0,0 l/m 0,5 km/h (0 Bft) N-NO 22 10,4 C 10,9 C 0,0 km/h (0 Bft)
26.08.2012 05:15 11,1 C 96 % 0,0 l/m 0,6 km/h (0 Bft) NO 45 10,5 C 10,9 C 0,0 km/h (0 Bft)
26.08.2012 05:20 11,0 C 96 % 0,0 l/m 1,0 km/h (0 Bft) N 360 10,4 C 11,0 C 3,9 km/h (1 Bft)
26.08.2012 05:25 11,0 C 96 % 0,0 l/m 1,8 km/h (1 Bft) N-NO 22 10,4 C 11,0 C 0,0 km/h (0 Bft)
26.08.2012 05:30 11,1 C 96 % 0,0 l/m 2,1 km/h (1 Bft) N 360 10,5 C 11,0 C 2,6 km/h (1 Bft)
26.08.2012 05:35 11,1 C 96 % 0,0 l/m 1,6 km/h (1 Bft) NW 315 10,5 C 11,1 C 0,0 km/h (0 Bft)
26.08.2012 05:40 11,1 C 96 % 0,0 l/m 1,1 km/h (1 Bft) N-NO 22 10,5 C 11,1 C 0,0 km/h (0 Bft)
26.08.2012 05:45 11,2 C 96 % 0,0 l/m 0,3 km/h (0 Bft) N 360 10,6 C 11,1 C 1,6 km/h (1 Bft)
26.08.2012 05:50 11,1 C 96 % 0,0 l/m 0,8 km/h (0 Bft) N 360 10,5 C 11,1 C 2,1 km/h (1 Bft)
26.08.2012 05:55 11,2 C 96 % 0,0 l/m 0,6 km/h (0 Bft) N-NO 22 10,6 C 11,2 C 0,0 km/h (0 Bft)
26.08.2012 06:00 11,2 C 96 % 0,0 l/m 0,8 km/h (0 Bft) N-NO 22 10,6 C 11,2 C 1,8 km/h (1 Bft)
26.08.2012 06:05 11,3 C 96 % 0,0 l/m 0,8 km/h (0 Bft) N-NO 22 10,7 C 11,3 C 3,2 km/h (1 Bft)
26.08.2012 06:10 11,2 C 96 % 0,0 l/m 1,0 km/h (0 Bft) N-NO 22 10,6 C 11,3 C 1,8 km/h (1 Bft)
26.08.2012 06:15 11,2 C 96 % 0,0 l/m 0,8 km/h (0 Bft) N-NO 22 10,6 C 11,2 C 0,0 km/h (0 Bft)
26.08.2012 06:20 11,1 C 96 % 0,0 l/m 0,8 km/h (0 Bft) N-NO 22 10,5 C 11,2 C 0,0 km/h (0 Bft)
26.08.2012 06:25 11,2 C 96 % 0,0 l/m 0,8 km/h (0 Bft) N 360 10,6 C 11,2 C 0,0 km/h (0 Bft)
26.08.2012 06:30 11,2 C 96 % 0,0 l/m 0,3 km/h (0 Bft) N-NO 22 10,6 C 11,1 C 0,0 km/h (0 Bft)
26.08.2012 06:35 11,2 C 96 % 0,0 l/m 0,8 km/h (0 Bft) SO 135 10,6 C 11,2 C 2,6 km/h (1 Bft)
26.08.2012 06:40 11,3 C 96 % 0,0 l/m 1,6 km/h (1 Bft) O 90 10,7 C 11,3 C 0,0 km/h (0 Bft)
26.08.2012 06:45 11,3 C 96 % 0,0 l/m 1,4 km/h (1 Bft) N-NW 337 10,7 C 11,3 C 0,0 km/h (0 Bft)
26.08.2012 06:50 11,2 C 96 % 0,0 l/m 1,1 km/h (1 Bft) N-NO 22 10,6 C 11,3 C 2,3 km/h (1 Bft)
26.08.2012 06:55 11,3 C 96 % 0,0 l/m 1,0 km/h (0 Bft) N-NO 22 10,7 C 11,3 C 0,0 km/h (0 Bft)
26.08.2012 07:00 11,3 C 96 % 0,0 l/m 1,0 km/h (0 Bft) N-NO 22 10,7 C 11,3 C 3,4 km/h (1 Bft)
26.08.2012 07:05 11,3 C 96 % 0,0 l/m 0,6 km/h (0 Bft) N-NW 337 10,7 C 11,4 C 0,0 km/h (0 Bft)
26.08.2012 07:10 11,5 C 96 % 0,0 l/m 0,5 km/h (0 Bft) NO 45 10,9 C 11,4 C 0,0 km/h (0 Bft)
26.08.2012 07:15 11,6 C 96 % 0,0 l/m 0,2 km/h (0 Bft) NO 45 11,0 C 11,4 C 0,0 km/h (0 Bft)
26.08.2012 07:20 11,6 C 96 % 0,0 l/m 0,6 km/h (0 Bft) N-NO 22 11,0 C 11,4 C 2,3 km/h (1 Bft)
26.08.2012 07:25 11,5 C 96 % 0,0 l/m 1,0 km/h (0 Bft) N 360 10,9 C 11,5 C 2,1 km/h (1 Bft)
26.08.2012 07:30 11,5 C 96 % 0,0 l/m 1,0 km/h (0 Bft) N-NO 22 10,9 C 11,5 C 0,0 km/h (0 Bft)
26.08.2012 07:35 11,5 C 96 % 0,0 l/m 0,6 km/h (0 Bft) N 360 10,9 C 11,6 C 0,0 km/h (0 Bft)
26.08.2012 07:40 11,6 C 96 % 0,0 l/m 0,2 km/h (0 Bft) N-NO 22 11,0 C 11,6 C 0,0 km/h (0 Bft)
26.08.2012 07:45 11,7 C 96 % 0,0 l/m 0,6 km/h (0 Bft) N-NO 22 11,1 C 11,6 C 1,9 km/h (1 Bft)
26.08.2012 07:50 11,7 C 96 % 0,0 l/m 0,8 km/h (0 Bft) SO 135 11,1 C 11,7 C 2,6 km/h (1 Bft)
26.08.2012 07:55 11,8 C 96 % 0,0 l/m 0,8 km/h (0 Bft) N-NW 337 11,2 C 11,7 C 1,6 km/h (1 Bft)
26.08.2012 08:00 11,8 C 96 % 0,0 l/m 0,8 km/h (0 Bft) N-NW 337 11,2 C 11,7 C 0,0 km/h (0 Bft)
26.08.2012 08:05 11,9 C 96 % 0,0 l/m 0,3 km/h (0 Bft) N-NW 337 11,3 C 11,8 C 0,0 km/h (0 Bft)
26.08.2012 08:10 11,9 C 96 % 0,0 l/m 0,5 km/h (0 Bft) N-NO 22 11,3 C 11,9 C 1,9 km/h (1 Bft)
26.08.2012 08:15 12,0 C 96 % 0,0 l/m 0,5 km/h (0 Bft) O-SO 112 11,4 C 12,1 C 0,0 km/h (0 Bft)
26.08.2012 08:20 12,0 C 96 % 0,0 l/m 0,5 km/h (0 Bft) SO 135 11,4 C 12,2 C 1,8 km/h (1 Bft)
26.08.2012 08:25 12,0 C 96 % 0,7 l/m 1,1 km/h (1 Bft) SO 135 11,4 C 12,1 C 4,8 km/h (1 Bft)
26.08.2012 08:30 12,0 C 96 % 0,0 l/m 1,8 km/h (1 Bft) N 360 11,4 C 12,0 C 2,1 km/h (1 Bft)
26.08.2012 08:35 11,9 C 96 % 0,0 l/m 1,8 km/h (1 Bft) N-NO 22 11,3 C 11,9 C 0,0 km/h (0 Bft)
26.08.2012 08:40 12,0 C 96 % 0,0 l/m 1,4 km/h (1 Bft) SO 135 11,4 C 11,9 C 4,5 km/h (1 Bft)
26.08.2012 08:45 12,0 C 96 % 0,0 l/m 2,7 km/h (1 Bft) SO 135 11,4 C 11,9 C 8,7 km/h (2 Bft)
26.08.2012 08:50 12,0 C 96 % 0,0 l/m 4,3 km/h (1 Bft) NO 45 11,4 C 11,8 C 9,7 km/h (2 Bft)
26.08.2012 08:55 12,0 C 96 % 0,0 l/m 4,5 km/h (1 Bft) O-SO 112 11,4 C 11,8 C 2,7 km/h (1 Bft)
26.08.2012 09:00 12,2 C 96 % 0,0 l/m 4,7 km/h (1 Bft) O-SO 112 11,6 C 11,9 C 4,0 km/h (1 Bft)
26.08.2012 09:05 12,4 C 96 % 0,0 l/m 5,1 km/h (1 Bft) O 90 11,8 C 12,1 C 6,9 km/h (2 Bft)
26.08.2012 09:10 12,5 C 96 % 0,0 l/m 4,7 km/h (1 Bft) O-NO 67 11,9 C 12,3 C 7,1 km/h (2 Bft)
26.08.2012 09:15 12,4 C 96 % 0,0 l/m 4,5 km/h (1 Bft) S 180 11,8 C 12,5 C 6,0 km/h (2 Bft)
26.08.2012 09:20 12,6 C 96 % 0,0 l/m 5,3 km/h (1 Bft) O 90 12,0 C 12,8 C 5,1 km/h (1 Bft)
26.08.2012 09:25 12,7 C 96 % 0,0 l/m 5,5 km/h (1 Bft) O-SO 112 12,1 C 13,0 C 6,1 km/h (2 Bft)
26.08.2012 09:30 12,7 C 96 % 0,0 l/m 5,3 km/h (1 Bft) SO 135 12,1 C 13,1 C 6,8 km/h (2 Bft)
26.08.2012 09:35 12,9 C 96 % 0,0 l/m 5,1 km/h (1 Bft) O 90 12,3 C 13,3 C 5,8 km/h (2 Bft)
26.08.2012 09:40 13,1 C 95 % 0,0 l/m 4,3 km/h (1 Bft) O-SO 112 12,3 C 13,5 C 7,1 km/h (2 Bft)
26.08.2012 09:45 13,6 C 95 % 0,0 l/m 5,1 km/h (1 Bft) O-SO 112 12,8 C 14,0 C 6,8 km/h (2 Bft)
26.08.2012 09:50 13,9 C 95 % 0,0 l/m 5,3 km/h (1 Bft) O 90 13,1 C 14,3 C 5,8 km/h (2 Bft)
26.08.2012 09:55 13,6 C 95 % 0,0 l/m 5,6 km/h (1 Bft) O-SO 112 12,8 C 14,5 C 7,6 km/h (2 Bft)
26.08.2012 10:00 13,6 C 95 % 0,0 l/m 6,0 km/h (2 Bft) O 90 12,8 C 14,4 C 7,4 km/h (2 Bft)
26.08.2012 10:05 13,2 C 95 % 0,0 l/m 6,9 km/h (2 Bft) SO 135 12,4 C 13,8 C 18,2 km/h (3 Bft)
26.08.2012 10:10 13,0 C 95 % 0,0 l/m 8,5 km/h (2 Bft) O-SO 112 12,2 C 12,4 C 6,9 km/h (2 Bft)
26.08.2012 10:15 13,0 C 95 % 0,0 l/m 8,2 km/h (2 Bft) O-SO 112 12,2 C 12,3 C 6,4 km/h (2 Bft)
26.08.2012 10:20 13,7 C 95 % 0,0 l/m 7,2 km/h (2 Bft) SO 135 12,9 C 13,1 C 14,6 km/h (3 Bft)
26.08.2012 10:25 14,2 C 94 % 0,0 l/m 6,8 km/h (2 Bft) O-SO 112 13,2 C 14,0 C 9,3 km/h (2 Bft)
26.08.2012 10:30 14,1 C 94 % 0,0 l/m 8,0 km/h (2 Bft) O-SO 112 13,1 C 12,9 C 10,9 km/h (2 Bft)
26.08.2012 10:35 13,4 C 94 % 0,0 l/m 9,7 km/h (2 Bft) O-SO 112 12,5 C 11,4 C 20,4 km/h (4 Bft)
26.08.2012 10:40 13,1 C 94 % 0,0 l/m 9,7 km/h (2 Bft) S 180 12,2 C 10,8 C 10,0 km/h (2 Bft)
26.08.2012 10:45 13,5 C 94 % 0,0 l/m 8,4 km/h (2 Bft) O 90 12,6 C 11,6 C 11,3 km/h (2 Bft)
26.08.2012 10:50 13,6 C 94 % 0,0 l/m 7,7 km/h (2 Bft) O 90 12,7 C 12,2 C 10,6 km/h (2 Bft)
26.08.2012 10:55 14,2 C 93 % 0,0 l/m 7,7 km/h (2 Bft) O 90 13,1 C 12,9 C 10,1 km/h (2 Bft)
26.08.2012 11:00 14,1 C 93 % 0,0 l/m 8,2 km/h (2 Bft) O-SO 112 13,0 C 13,4 C 8,0 km/h (2 Bft)
26.08.2012 11:05 14,3 C 92 % 0,0 l/m 8,2 km/h (2 Bft) O 90 13,0 C 13,7 C 13,5 km/h (3 Bft)
26.08.2012 11:10 13,4 C 91 % 0,0 l/m 7,1 km/h (2 Bft) S-SO 157 12,0 C 13,7 C 4,3 km/h (1 Bft)
26.08.2012 11:15 12,9 C 92 % 0,0 l/m 6,1 km/h (2 Bft) SO 135 11,6 C 13,2 C 5,0 km/h (1 Bft)
26.08.2012 11:20 12,7 C 92 % 0,0 l/m 6,1 km/h (2 Bft) O-SO 112 11,4 C 12,6 C 12,2 km/h (2 Bft)
26.08.2012 11:25 12,9 C 92 % 0,0 l/m 6,6 km/h (2 Bft) O 90 11,6 C 12,3 C 7,2 km/h (2 Bft)
26.08.2012 11:30 13,3 C 91 % 0,0 l/m 7,6 km/h (2 Bft) O 90 11,9 C 11,9 C 15,9 km/h (3 Bft)
26.08.2012 11:35 13,7 C 91 % 0,0 l/m 7,6 km/h (2 Bft) SO 135 12,3 C 12,7 C 9,3 km/h (2 Bft)
26.08.2012 11:40 13,7 C 91 % 0,0 l/m 8,4 km/h (2 Bft) O-SO 112 12,3 C 12,4 C 24,0 km/h (4 Bft)
26.08.2012 11:45 13,5 C 90 % 0,0 l/m 10,1 km/h (2 Bft) O 90 11,9 C 11,3 C 13,4 km/h (3 Bft)
26.08.2012 11:50 13,5 C 90 % 0,0 l/m 10,3 km/h (2 Bft) O 90 11,9 C 11,4 C 7,2 km/h (2 Bft)
26.08.2012 11:55 13,5 C 90 % 0,0 l/m 8,7 km/h (2 Bft) O-SO 112 11,9 C 12,5 C 9,3 km/h (2 Bft)
26.08.2012 12:00 13,2 C 90 % 0,0 l/m 7,4 km/h (2 Bft) O 90 11,6 C 13,2 C 6,6 km/h (2 Bft)
26.08.2012 12:05 13,4 C 90 % 0,0 l/m 6,8 km/h (2 Bft) O-SO 112 11,8 C 13,7 C 9,0 km/h (2 Bft)
26.08.2012 12:10 13,6 C 90 % 0,0 l/m 7,4 km/h (2 Bft) O-SO 112 12,0 C 13,5 C 9,3 km/h (2 Bft)
26.08.2012 12:15 13,6 C 90 % 0,0 l/m 6,9 km/h (2 Bft) O 90 12,0 C 13,9 C 7,2 km/h (2 Bft)
26.08.2012 12:20 14,1 C 90 % 0,0 l/m 5,8 km/h (2 Bft) O-SO 112 12,5 C 14,6 C 6,6 km/h (2 Bft)
26.08.2012 12:25 14,5 C 90 % 0,0 l/m 5,3 km/h (1 Bft) O 90 12,9 C 15,0 C 7,9 km/h (2 Bft)
26.08.2012 12:30 15,5 C 89 % 0,0 l/m 5,6 km/h (1 Bft) O-SO 112 13,7 C 15,6 C 7,7 km/h (2 Bft)
26.08.2012 12:35 16,9 C 88 % 0,0 l/m 6,3 km/h (2 Bft) NO 45 14,9 C 17,5 C 11,3 km/h (2 Bft)
26.08.2012 12:40 15,9 C 88 % 0,0 l/m 7,2 km/h (2 Bft) SO 135 13,9 C 17,5 C 20,1 km/h (4 Bft)
26.08.2012 12:45 15,3 C 88 % 0,0 l/m 10,9 km/h (2 Bft) O-SO 112 13,3 C 14,3 C 28,0 km/h (4 Bft)
26.08.2012 12:50 14,9 C 89 % 0,0 l/m 13,8 km/h (3 Bft) O 90 13,1 C 12,4 C 14,2 km/h (3 Bft)
26.08.2012 12:55 16,0 C 88 % 0,0 l/m 13,5 km/h (3 Bft) W-NW 292 14,0 C 12,2 C 12,9 km/h (3 Bft)
26.08.2012 13:00 17,4 C 87 % 0,0 l/m 13,8 km/h (3 Bft) S-SO 157 15,2 C 13,5 C 21,4 km/h (4 Bft)
26.08.2012 13:05 17,6 C 87 % 0,0 l/m 13,2 km/h (3 Bft) SO 135 15,4 C 15,2 C 16,9 km/h (3 Bft)
26.08.2012 13:10 16,0 C 87 % 0,0 l/m 13,0 km/h (3 Bft) O-SO 112 13,8 C 14,6 C 15,1 km/h (3 Bft)
26.08.2012 13:15 14,9 C 84 % 0,0 l/m 12,9 km/h (3 Bft) O-SO 112 12,2 C 12,6 C 5,8 km/h (2 Bft)
26.08.2012 13:20 14,7 C 84 % 0,0 l/m 11,1 km/h (2 Bft) O-SO 112 12,0 C 12,9 C 12,9 km/h (3 Bft)
26.08.2012 13:25 14,7 C 83 % 0,0 l/m 9,7 km/h (2 Bft) O-NO 67 11,8 C 13,3 C 14,3 km/h (3 Bft)
26.08.2012 13:30 14,8 C 85 % 0,0 l/m 9,5 km/h (2 Bft) SO 135 12,3 C 13,3 C 10,3 km/h (2 Bft)
26.08.2012 13:35 14,8 C 82 % 0,0 l/m 10,1 km/h (2 Bft) O-SO 112 11,8 C 13,2 C 12,4 km/h (3 Bft)
26.08.2012 13:40 14,9 C 80 % 0,0 l/m 12,2 km/h (2 Bft) O-SO 112 11,5 C 12,1 C 12,2 km/h (2 Bft)
26.08.2012 13:45 15,2 C 82 % 0,0 l/m 13,2 km/h (3 Bft) SO 135 12,1 C 11,8 C 31,5 km/h (5 Bft)
26.08.2012 13:50 15,1 C 79 % 0,0 l/m 11,9 km/h (2 Bft) SO 135 11,5 C 12,7 C 23,8 km/h (4 Bft)
26.08.2012 13:55 15,1 C 80 % 0,0 l/m 12,2 km/h (2 Bft) SO 135 11,7 C 12,5 C 12,7 km/h (3 Bft)
26.08.2012 14:00 15,2 C 79 % 0,0 l/m 12,6 km/h (3 Bft) O-SO 112 11,6 C 12,5 C 11,7 km/h (2 Bft)
26.08.2012 14:05 15,7 C 80 % 0,0 l/m 10,6 km/h (2 Bft) O 90 12,3 C 14,1 C 12,1 km/h (2 Bft)
26.08.2012 14:10 15,7 C 80 % 0,0 l/m 10,9 km/h (2 Bft) O-SO 112 12,3 C 14,1 C 15,3 km/h (3 Bft)
26.08.2012 14:15 16,0 C 82 % 0,0 l/m 9,7 km/h (2 Bft) O-SO 112 12,9 C 14,8 C 15,0 km/h (3 Bft)
26.08.2012 14:20 15,9 C 79 % 0,0 l/m 9,2 km/h (2 Bft) SO 135 12,3 C 15,2 C 9,0 km/h (2 Bft)
26.08.2012 14:25 15,9 C 79 % 0,0 l/m 10,1 km/h (2 Bft) S-SW 202 12,3 C 14,8 C 8,5 km/h (2 Bft)
26.08.2012 14:30 16,1 C 76 % 0,0 l/m 9,3 km/h (2 Bft) O-SO 112 11,9 C 15,5 C 18,8 km/h (3 Bft)
26.08.2012 14:35 16,2 C 73 % 0,0 l/m 10,1 km/h (2 Bft) O-SO 112 11,4 C 15,2 C 12,9 km/h (3 Bft)
26.08.2012 14:40 16,3 C 70 % 0,0 l/m 13,2 km/h (3 Bft) S-SO 157 10,8 C 13,9 C 25,6 km/h (4 Bft)
26.08.2012 14:45 16,3 C 73 % 0,0 l/m 12,9 km/h (3 Bft) O-SO 112 11,4 C 13,6 C 33,6 km/h (5 Bft)
26.08.2012 14:50 16,5 C 73 % 0,0 l/m 11,6 km/h (2 Bft) O-SO 112 11,6 C 14,4 C 7,9 km/h (2 Bft)
26.08.2012 14:55 16,7 C 74 % 0,0 l/m 7,9 km/h (2 Bft) S-SO 157 12,0 C 16,5 C 12,4 km/h (3 Bft)
26.08.2012 15:00 16,8 C 69 % 0,0 l/m 8,5 km/h (2 Bft) S 180 11,1 C 16,1 C 7,9 km/h (2 Bft)
26.08.2012 15:05 16,6 C 65 % 0,0 l/m 11,4 km/h (2 Bft) S 180 10,0 C 15,6 C 16,6 km/h (3 Bft)
26.08.2012 15:10 17,2 C 68 % 0,0 l/m 10,3 km/h (2 Bft) SO 135 11,2 C 15,8 C 6,8 km/h (2 Bft)
26.08.2012 15:15 16,8 C 69 % 0,0 l/m 8,7 km/h (2 Bft) SO 135 11,1 C 16,6 C 7,7 km/h (2 Bft)
26.08.2012 15:20 16,8 C 67 % 0,0 l/m 6,9 km/h (2 Bft) O-SO 112 10,6 C 17,5 C 9,8 km/h (2 Bft)
26.08.2012 15:25 16,9 C 65 % 0,0 l/m 6,3 km/h (2 Bft) O-SO 112 10,3 C 17,9 C 8,9 km/h (2 Bft)
26.08.2012 15:30 16,7 C 61 % 0,0 l/m 8,2 km/h (2 Bft) SO 135 9,1 C 16,8 C 23,2 km/h (4 Bft)
26.08.2012 15:35 17,0 C 60 % 0,0 l/m 11,6 km/h (2 Bft) O-SO 112 9,2 C 14,8 C 12,7 km/h (3 Bft)
26.08.2012 15:40 17,7 C 58 % 0,0 l/m 12,9 km/h (3 Bft) S-SO 157 9,3 C 15,2 C 13,0 km/h (3 Bft)
26.08.2012 15:45 17,7 C 59 % 0,0 l/m 9,7 km/h (2 Bft) N-NO 22 9,6 C 17,3 C 9,3 km/h (2 Bft)
26.08.2012 15:50 17,2 C 58 % 0,0 l/m 9,8 km/h (2 Bft) SO 135 8,9 C 16,8 C 16,7 km/h (3 Bft)
26.08.2012 15:55 16,6 C 60 % 0,0 l/m 10,9 km/h (2 Bft) S-SO 157 8,8 C 15,7 C 5,0 km/h (1 Bft)
26.08.2012 16:00 16,3 C 62 % 0,0 l/m 9,0 km/h (2 Bft) O 90 9,0 C 16,1 C 7,7 km/h (2 Bft)
26.08.2012 16:05 16,9 C 60 % 0,0 l/m 8,4 km/h (2 Bft) O-SO 112 9,1 C 16,2 C 19,6 km/h (3 Bft)
26.08.2012 16:10 18,1 C 59 % 0,0 l/m 8,5 km/h (2 Bft) S 180 10,0 C 17,1 C 6,0 km/h (2 Bft)
26.08.2012 16:15 18,9 C 51 % 0,0 l/m 9,8 km/h (2 Bft) SO 135 8,5 C 18,4 C 20,8 km/h (4 Bft)
26.08.2012 16:20 18,5 C 50 % 0,0 l/m 11,1 km/h (2 Bft) S-SO 157 7,9 C 18,1 C 18,8 km/h (3 Bft)
26.08.2012 16:25 18,5 C 51 % 0,0 l/m 14,5 km/h (3 Bft) S-SO 157 8,2 C 17,0 C 21,7 km/h (4 Bft)
26.08.2012 16:30 18,0 C 51 % 0,0 l/m 15,9 km/h (3 Bft) O-SO 112 7,7 C 16,4 C 13,2 km/h (3 Bft)
26.08.2012 16:35 17,1 C 55 % 0,0 l/m 12,9 km/h (3 Bft) S-SO 157 8,0 C 16,4 C 8,0 km/h (2 Bft)
26.08.2012 16:40 16,7 C 55 % 0,0 l/m 10,0 km/h (2 Bft) SO 135 7,6 C 17,2 C 20,1 km/h (4 Bft)
26.08.2012 16:45 16,2 C 55 % 0,0 l/m 8,5 km/h (2 Bft) SO 135 7,2 C 16,8 C 11,6 km/h (2 Bft)
26.08.2012 16:50 16,1 C 55 % 0,0 l/m 10,3 km/h (2 Bft) S-SO 157 7,1 C 15,9 C 12,4 km/h (3 Bft)
26.08.2012 16:55 16,5 C 55 % 0,0 l/m 10,5 km/h (2 Bft) S 180 7,4 C 15,8 C 8,9 km/h (2 Bft)
26.08.2012 17:00 16,7 C 53 % 0,0 l/m 10,1 km/h (2 Bft) O-SO 112 7,1 C 16,9 C 10,3 km/h (2 Bft)
26.08.2012 17:05 16,6 C 55 % 0,0 l/m 10,0 km/h (2 Bft) SO 135 7,5 C 17,4 C 21,2 km/h (4 Bft)
26.08.2012 17:10 16,5 C 56 % 0,0 l/m 9,5 km/h (2 Bft) SO 135 7,7 C 16,7 C 12,9 km/h (3 Bft)
26.08.2012 17:15 16,2 C 55 % 0,0 l/m 10,9 km/h (2 Bft) SO 135 7,2 C 15,2 C 12,7 km/h (3 Bft)
26.08.2012 17:20 16,2 C 56 % 0,0 l/m 11,3 km/h (2 Bft) SO 135 7,4 C 14,6 C 11,6 km/h (2 Bft)
26.08.2012 17:25 16,1 C 58 % 0,0 l/m 8,7 km/h (2 Bft) SO 135 7,8 C 15,8 C 6,9 km/h (2 Bft)
26.08.2012 17:30 16,0 C 57 % 0,0 l/m 8,0 km/h (2 Bft) O-SO 112 7,5 C 15,9 C 18,2 km/h (3 Bft)
26.08.2012 17:35 15,9 C 58 % 0,0 l/m 10,0 km/h (2 Bft) W-SW 247 7,6 C 14,7 C 13,7 km/h (3 Bft)
26.08.2012 17:40 15,8 C 58 % 0,0 l/m 11,1 km/h (2 Bft) SO 135 7,6 C 13,9 C 11,3 km/h (2 Bft)
26.08.2012 17:45 15,6 C 59 % 0,0 l/m 11,7 km/h (2 Bft) O-SO 112 7,6 C 13,7 C 15,9 km/h (3 Bft)
26.08.2012 17:50 15,4 C 60 % 0,0 l/m 10,1 km/h (2 Bft) O 90 7,7 C 14,3 C 5,1 km/h (1 Bft)
26.08.2012 17:55 15,4 C 63 % 0,0 l/m 9,3 km/h (2 Bft) SO 135 8,4 C 14,4 C 12,7 km/h (3 Bft)
26.08.2012 18:00 15,5 C 62 % 0,0 l/m 8,4 km/h (2 Bft) O-SO 112 8,3 C 15,0 C 10,1 km/h (2 Bft)
26.08.2012 18:05 15,6 C 63 % 0,0 l/m 7,9 km/h (2 Bft) O 90 8,6 C 15,2 C 10,1 km/h (2 Bft)
26.08.2012 18:10 15,5 C 62 % 0,0 l/m 8,4 km/h (2 Bft) SO 135 8,3 C 15,0 C 10,5 km/h (2 Bft)
26.08.2012 18:15 15,4 C 64 % 0,0 l/m 8,5 km/h (2 Bft) S 180 8,6 C 14,7 C 8,5 km/h (2 Bft)
26.08.2012 18:20 15,2 C 64 % 0,0 l/m 7,9 km/h (2 Bft) N-NO 22 8,4 C 14,9 C 10,0 km/h (2 Bft)
26.08.2012 18:25 15,4 C 65 % 0,0 l/m 7,4 km/h (2 Bft) O-SO 112 8,9 C 15,3 C 8,9 km/h (2 Bft)
26.08.2012 18:30 15,4 C 65 % 0,0 l/m 6,8 km/h (2 Bft) S 180 8,9 C 15,7 C 7,6 km/h (2 Bft)
26.08.2012 18:35 14,9 C 66 % 0,0 l/m 7,7 km/h (2 Bft) O-SO 112 8,6 C 14,8 C 10,9 km/h (2 Bft)
26.08.2012 18:40 14,7 C 67 % 0,0 l/m 7,6 km/h (2 Bft) O-SO 112 8,6 C 14,5 C 14,6 km/h (3 Bft)
26.08.2012 18:45 14,9 C 66 % 0,0 l/m 8,4 km/h (2 Bft) O 90 8,6 C 14,0 C 10,8 km/h (2 Bft)
26.08.2012 18:50 14,9 C 64 % 0,0 l/m 9,2 km/h (2 Bft) SO 135 8,2 C 14,1 C 10,8 km/h (2 Bft)
26.08.2012 18:55 14,9 C 66 % 0,0 l/m 8,7 km/h (2 Bft) S-SO 157 8,6 C 14,9 C 7,2 km/h (2 Bft)
26.08.2012 19:00 14,9 C 66 % 0,0 l/m 7,6 km/h (2 Bft) O 90 8,6 C 15,6 C 5,5 km/h (1 Bft)
26.08.2012 19:05 14,7 C 66 % 0,0 l/m 6,8 km/h (2 Bft) O 90 8,4 C 15,5 C 6,0 km/h (2 Bft)
26.08.2012 19:10 14,5 C 65 % 0,0 l/m 8,0 km/h (2 Bft) O-SO 112 8,0 C 14,3 C 16,1 km/h (3 Bft)
26.08.2012 19:15 14,2 C 67 % 0,0 l/m 8,4 km/h (2 Bft) O-SO 112 8,2 C 13,7 C 6,6 km/h (2 Bft)
26.08.2012 19:20 14,2 C 67 % 0,0 l/m 8,2 km/h (2 Bft) SO 135 8,2 C 13,6 C 5,8 km/h (2 Bft)
26.08.2012 19:25 14,2 C 68 % 0,0 l/m 6,3 km/h (2 Bft) O 90 8,4 C 14,6 C 9,7 km/h (2 Bft)
26.08.2012 19:30 14,0 C 68 % 0,0 l/m 5,0 km/h (1 Bft) O-SO 112 8,2 C 14,5 C 9,8 km/h (2 Bft)
26.08.2012 19:35 13,9 C 69 % 0,0 l/m 4,0 km/h (1 Bft) NO 45 8,3 C 14,2 C 4,8 km/h (1 Bft)
26.08.2012 19:40 13,8 C 70 % 0,0 l/m 3,2 km/h (1 Bft) N 360 8,4 C 14,2 C 1,8 km/h (1 Bft)
26.08.2012 19:45 13,8 C 70 % 0,0 l/m 2,1 km/h (1 Bft) O-SO 112 8,4 C 14,0 C 2,6 km/h (1 Bft)
26.08.2012 19:50 13,8 C 70 % 0,0 l/m 2,3 km/h (1 Bft) O-NO 67 8,4 C 14,0 C 2,9 km/h (1 Bft)
26.08.2012 19:55 13,6 C 71 % 0,0 l/m 4,7 km/h (1 Bft) SO 135 8,4 C 13,7 C 5,8 km/h (2 Bft)
26.08.2012 20:00 13,0 C 74 % 0,0 l/m 4,7 km/h (1 Bft) SO 135 8,5 C 12,9 C 3,7 km/h (1 Bft)
26.08.2012 20:05 12,5 C 76 % 0,0 l/m 4,2 km/h (1 Bft) NO 45 8,4 C 12,1 C 2,7 km/h (1 Bft)
26.08.2012 20:10 12,4 C 77 % 0,0 l/m 2,7 km/h (1 Bft) O-SO 112 8,5 C 11,9 C 0,0 km/h (0 Bft)
26.08.2012 20:15 12,4 C 78 % 0,0 l/m 1,8 km/h (1 Bft) SO 135 8,7 C 11,9 C 3,1 km/h (1 Bft)
26.08.2012 20:20 12,3 C 79 % 0,0 l/m 2,6 km/h (1 Bft) S 180 8,8 C 11,9 C 4,5 km/h (1 Bft)
26.08.2012 20:25 11,9 C 84 % 0,7 l/m 5,0 km/h (1 Bft) S-SO 157 9,3 C 11,3 C 6,4 km/h (2 Bft)
26.08.2012 20:30 11,7 C 85 % 0,0 l/m 6,4 km/h (2 Bft) O-SO 112 9,3 C 10,6 C 7,7 km/h (2 Bft)
26.08.2012 20:35 11,5 C 86 % 0,0 l/m 5,3 km/h (1 Bft) S 180 9,2 C 10,7 C 1,6 km/h (1 Bft)
26.08.2012 20:40 11,4 C 87 % 0,0 l/m 3,4 km/h (1 Bft) O-SO 112 9,3 C 10,9 C 6,4 km/h (2 Bft)
26.08.2012 20:45 11,2 C 88 % 0,0 l/m 2,1 km/h (1 Bft) N-NO 22 9,3 C 10,7 C 2,3 km/h (1 Bft)
26.08.2012 20:50 11,1 C 88 % 0,0 l/m 1,8 km/h (1 Bft) NO 45 9,2 C 10,7 C 0,0 km/h (0 Bft)
26.08.2012 20:55 11,3 C 88 % 0,0 l/m 1,3 km/h (1 Bft) SO 135 9,4 C 10,7 C 0,0 km/h (0 Bft)
26.08.2012 21:00 11,3 C 88 % 0,0 l/m 1,9 km/h (1 Bft) SO 135 9,4 C 10,9 C 2,9 km/h (1 Bft)
26.08.2012 21:05 11,3 C 89 % 0,0 l/m 1,8 km/h (1 Bft) O 90 9,6 C 11,0 C 0,0 km/h (0 Bft)
26.08.2012 21:10 11,3 C 89 % 0,0 l/m 1,8 km/h (1 Bft) NO 45 9,6 C 11,1 C 2,6 km/h (1 Bft)
26.08.2012 21:15 11,3 C 89 % 0,0 l/m 1,8 km/h (1 Bft) NO 45 9,6 C 11,1 C 3,7 km/h (1 Bft)
26.08.2012 21:20 11,4 C 89 % 0,0 l/m 1,8 km/h (1 Bft) O-NO 67 9,7 C 11,1 C 2,7 km/h (1 Bft)
26.08.2012 21:25 11,5 C 88 % 0,0 l/m 2,1 km/h (1 Bft) O-SO 112 9,6 C 11,3 C 3,4 km/h (1 Bft)
26.08.2012 21:30 11,6 C 88 % 0,0 l/m 3,1 km/h (1 Bft) O 90 9,7 C 11,4 C 7,6 km/h (2 Bft)
26.08.2012 21:35 11,7 C 88 % 0,0 l/m 3,7 km/h (1 Bft) S 180 9,8 C 11,7 C 4,5 km/h (1 Bft)
26.08.2012 21:40 11,5 C 88 % 0,0 l/m 3,2 km/h (1 Bft) O-SO 112 9,6 C 11,6 C 0,0 km/h (0 Bft)
26.08.2012 21:45 11,1 C 88 % 0,0 l/m 2,4 km/h (1 Bft) O-SO 112 9,2 C 11,4 C 1,6 km/h (1 Bft)
26.08.2012 21:50 11,1 C 88 % 0,0 l/m 1,8 km/h (1 Bft) SO 135 9,2 C 11,1 C 2,3 km/h (1 Bft)
26.08.2012 21:55 11,1 C 88 % 0,0 l/m 1,8 km/h (1 Bft) NO 45 9,2 C 11,0 C 5,3 km/h (1 Bft)
26.08.2012 22:00 11,0 C 88 % 0,0 l/m 3,1 km/h (1 Bft) O 90 9,1 C 11,0 C 4,8 km/h (1 Bft)
26.08.2012 22:05 10,9 C 89 % 0,0 l/m 4,0 km/h (1 Bft) W 270 9,2 C 11,0 C 2,6 km/h (1 Bft)
26.08.2012 22:10 10,9 C 89 % 0,0 l/m 4,2 km/h (1 Bft) O-SO 112 9,2 C 11,0 C 8,9 km/h (2 Bft)
26.08.2012 22:15 11,1 C 88 % 0,0 l/m 4,2 km/h (1 Bft) SO 135 9,2 C 11,1 C 3,5 km/h (1 Bft)
26.08.2012 22:20 11,0 C 88 % 0,0 l/m 4,3 km/h (1 Bft) O-SO 112 9,1 C 11,1 C 6,0 km/h (2 Bft)
26.08.2012 22:25 11,1 C 88 % 0,0 l/m 4,7 km/h (1 Bft) SO 135 9,2 C 11,2 C 6,3 km/h (2 Bft)
26.08.2012 22:30 11,4 C 88 % 0,0 l/m 5,3 km/h (1 Bft) O-SO 112 9,5 C 11,2 C 6,8 km/h (2 Bft)
26.08.2012 22:35 11,5 C 88 % 0,0 l/m 5,1 km/h (1 Bft) NO 45 9,6 C 11,7 C 6,3 km/h (2 Bft)
26.08.2012 22:40 11,6 C 88 % 0,0 l/m 4,7 km/h (1 Bft) O-SO 112 9,7 C 11,9 C 3,5 km/h (1 Bft)
26.08.2012 22:45 11,8 C 88 % 0,0 l/m 5,8 km/h (2 Bft) O 90 9,9 C 11,9 C 10,1 km/h (2 Bft)
26.08.2012 22:50 11,9 C 87 % 0,0 l/m 7,6 km/h (2 Bft) SO 135 9,8 C 10,9 C 13,2 km/h (3 Bft)
26.08.2012 22:55 11,9 C 87 % 0,0 l/m 8,4 km/h (2 Bft) O-SO 112 9,8 C 10,3 C 12,7 km/h (3 Bft)
26.08.2012 23:00 12,0 C 86 % 0,0 l/m 8,2 km/h (2 Bft) SO 135 9,7 C 10,6 C 12,1 km/h (2 Bft)
26.08.2012 23:05 12,1 C 85 % 0,0 l/m 9,0 km/h (2 Bft) O 90 9,7 C 10,1 C 13,2 km/h (3 Bft)
26.08.2012 23:10 12,1 C 85 % 0,0 l/m 9,3 km/h (2 Bft) O-SO 112 9,7 C 9,9 C 15,1 km/h (3 Bft)
26.08.2012 23:15 12,0 C 85 % 0,0 l/m 9,0 km/h (2 Bft) N 360 9,6 C 10,1 C 7,7 km/h (2 Bft)
26.08.2012 23:20 12,0 C 85 % 0,0 l/m 8,4 km/h (2 Bft) S 180 9,6 C 10,4 C 13,8 km/h (3 Bft)
26.08.2012 23:25 11,9 C 85 % 0,0 l/m 8,0 km/h (2 Bft) O-SO 112 9,5 C 10,6 C 12,6 km/h (3 Bft)
26.08.2012 23:30 11,9 C 85 % 0,0 l/m 8,5 km/h (2 Bft) O-SO 112 9,5 C 10,2 C 10,9 km/h (2 Bft)
26.08.2012 23:35 11,9 C 85 % 0,0 l/m 7,9 km/h (2 Bft) O-SO 112 9,5 C 10,6 C 10,8 km/h (2 Bft)
26.08.2012 23:40 11,7 C 85 % 0,0 l/m 7,6 km/h (2 Bft) O-SO 112 9,3 C 10,8 C 10,8 km/h (2 Bft)
26.08.2012 23:45 11,6 C 85 % 0,0 l/m 6,8 km/h (2 Bft) O-SO 112 9,2 C 11,1 C 6,0 km/h (2 Bft)
26.08.2012 23:50 11,4 C 85 % 0,0 l/m 6,0 km/h (2 Bft) S-SW 202 9,0 C 11,5 C 2,6 km/h (1 Bft)
26.08.2012 23:55 11,1 C 86 % 0,0 l/m 4,3 km/h (1 Bft) W-SW 247 8,8 C 11,5 C 0,0 km/h (0 Bft)
_ Min-Zeit 22:10 16:20 - 04:55 - - 16:50 23:10 23:55
Minimum _ 10,9 C 50 % - 0,0 km/h (0 Bft) - - 7,1 C 9,9 C 0,0 km/h (0 Bft)
_ Max-Zeit 16:15 09:35 20:25 16:30 - - 13:05 16:15 14:45
Maximum _ 18,9 C 96 % 0,7 l/m 15,9 km/h
O-SO (3 Bft)
- - 15,4 C 18,4 C 33,6 km/h
O-SO (5 Bft)
Durchschnitt _ 13,1 C 85 % #10,3 l/m 5,1 km/h (1 Bft) O-SO - 10,5 C 12,7 C 6,7 km/h (2 Bft)